Regional Weather Roundup
Issued by NWS

Home | Current Version | Previous Version | Graphics & Text | Print | Product List | Glossary On
Versions: 1 2 3 4 5 6 7 8 9 10 11 12 13 14 15 16 17 18 19 20 21 22 23 24 25 26 27 28 29 30 31 32 33 34 35 36 37 38 39 40 41 42 43 44 45 46 47 48 49 50
000
ASUS43 KBIS 280510
RWRND

NORTH DAKOTA REGIONAL WEATHER ROUNDUP
NATIONAL WEATHER SERVICE BISMARCK ND
1100 PM CST SAT DEC 27 2014

NOTE: "FAIR" INDICATES FEW OR NO CLOUDS BELOW 12,000 FEET WITH NO
SIGNIFICANT WEATHER AND/OR OBSTRUCTIONS TO VISIBILITY.


NDZ001>003-009>011-017-280600-
NORTHWEST NORTH DAKOTA

CITY           SKY/WX    TMP DP  RH WIND       PRES   REMARKS
WILLISTON      LGT SNOW  19  14  81 NE8       30.01S WCI   9
MINOT          CLOUDY    11   6  81 N12       30.06S WCI  -3
MINOT AFB      MIX PCPN  10   8  92 NE8       30.07R WCI  -2
$$

NDZ018>021-031>035-040>046-280600-
SOUTHWEST NORTH DAKOTA

CITY           SKY/WX    TMP DP  RH WIND       PRES   REMARKS
BISMARCK       CLOUDY    14  12  92 CALM      30.05R
DICKINSON      CLOUDY    21  15  78 S5        29.95S WCI  15
GARRISON         N/A     18  14  84 CALM      30.02S
HETTINGER ARPT CLOUDY    19  14  81 CALM      29.98F
$$

NDZ004>008-012>016-024-026-027-054-280600-
NORTHEAST NORTH DAKOTA

CITY           SKY/WX    TMP DP  RH WIND       PRES   REMARKS
GRAND FORKS    LGT SNOW  10   6  84 N15       30.11R FOG     WCI  -7
GRND FRKS AFB  CLOUDY    10   9  92 N16       30.11R WCI  -7
DEVILS LAKE    CLOUDY    10   3  72 NE12      30.06R WCI  -4
$$

NDZ022-023-025-028>030-036>039-047>053-280600-
SOUTHEAST NORTH DAKOTA

CITY           SKY/WX    TMP DP  RH WIND       PRES   REMARKS
FARGO          CLOUDY    24  19  81 W5        30.04S WCI  18
JAMESTOWN      CLOUDY    21  15  78 NW13      30.02S WCI   9
$$



USA.gov is the U.S. government's official web portal to all federal, state and local government web resources and services.